Flag for Israel Weather past 2 weeks in Petah Tikva, Israel

Now
88 °F

Passing clouds.


Feels Like: 93 °F
Forecast: 73 / 91 °F
Wind: 12 mph from West

Location: Ben Gurion International Airport

Current Time: Jul 31, 2014 at 12:36:28 PM

Latest Report: Jul 31, 2014 at 12:20 PM


Visibility: N/A

Pressure: 29.77 "Hg

Humidity: 55%

Dew point: 70 °F

Location of Petah TikvaLocation

Historic Weather in Petah Tikva — Graph

°F

Petah Tikva temperature yesterday

Maximum temperature yesterday: 91 °F (at 11:20 AM)
Minimum temperature yesterday: 73 °F (at 4:50 AM)
Average temperature yesterday: 82 °F

Past Weeks' High & Low Weather Summary

 TemperatureHumidityPressure
High91 °F (Jul 30, 11:20 AM)89% (Jul 24, 3:20 AM)29.92 "Hg (Jul 24, 3:20 AM)
Low72 °F (Jul 26, 5:50 AM)46% (Jul 16, 11:20 AM)29.71 "Hg (Jul 25, 3:20 PM)
Average81 °F67%29.80 "Hg
* Reported Jul 16 11:20 AM — Jul 31 11:20 AM, Petah Tikva, Weather by CustomWeather, © 2014

Note: Actual official high and low records may vary slightly from our data, if they occured in-between our weather recording intervals... More about our weather records

Advertising

Petah Tikva weather history for previous 24 hours

 ConditionsComfort  
Time TempWeatherWind HumidityBarometerVisibility
11:20 AM
Jul 31
88 °FPassing clouds.8 mph52%29.77 "HgN/A
10:50 AM86 °FPassing clouds.6 mph55%29.77 "HgN/A
10:20 AM86 °FPassing clouds.5 mph55%29.77 "HgN/A
9:50 AM84 °FPassing clouds.6 mph58%29.77 "HgN/A
9:20 AM84 °FScattered clouds.6 mph58%29.77 "HgN/A
8:50 AM82 °FScattered clouds.6 mph62%29.77 "HgN/A
8:20 AM81 °FScattered clouds.6 mph66%29.77 "HgN/A
7:50 AM79 °FScattered clouds.6 mph74%29.77 "HgN/A
7:20 AM77 °FPartly sunny.6 mph79%29.77 "HgN/A
6:50 AM75 °FPassing clouds.6 mph78%29.77 "HgN/A
6:20 AM75 °FPassing clouds.5 mph78%29.77 "HgN/A
5:50 AM75 °FPassing clouds.6 mph78%29.77 "HgN/A
5:20 AM75 °FPassing clouds.6 mph78%29.77 "HgN/A
4:50 AM75 °FPassing clouds.5 mph83%29.77 "HgN/A
4:20 AM75 °FPassing clouds.3 mph83%29.74 "HgN/A
3:50 AM75 °FPassing clouds.5 mph83%29.74 "HgN/A
3:20 AM75 °FPassing clouds.5 mph83%29.74 "HgN/A
2:50 AM75 °FPassing clouds.5 mph83%29.74 "HgN/A
2:20 AM75 °FPassing clouds.5 mph83%29.74 "HgN/A
1:50 AM77 °FPassing clouds.5 mph79%29.74 "HgN/A
1:20 AM77 °FPassing clouds.6 mph79%29.77 "HgN/A
12:50 AM77 °FPassing clouds.6 mph79%29.77 "HgN/A
12:20 AM77 °FPassing clouds.5 mph79%29.77 "HgN/A
11:50 PM
Jul 30
79 °FPassing clouds.2 mph74%29.77 "HgN/A
11:20 PM79 °FPassing clouds.3 mph74%29.77 "HgN/A
10:50 PM79 °FPassing clouds.2 mph74%29.77 "HgN/A
10:20 PM79 °FPassing clouds.3 mph74%29.77 "HgN/A
9:50 PM79 °FPassing clouds.5 mph79%29.77 "HgN/A
9:20 PM81 °FPassing clouds.5 mph74%29.77 "HgN/A
8:50 PM81 °FPassing clouds.7 mph74%29.77 "HgN/A
8:20 PM81 °FPassing clouds.7 mph74%29.74 "HgN/A
7:50 PM81 °FSunny.8 mph74%29.74 "Hg10 mi
7:20 PM82 °FSunny.8 mph70%29.74 "Hg10 mi
6:50 PM84 °FSunny.8 mph66%29.74 "Hg10 mi
6:20 PM86 °FSunny.10 mph62%29.74 "Hg10 mi
5:50 PM88 °FSunny.10 mph59%29.74 "Hg10 mi
5:20 PM90 °FPassing clouds.9 mph55%29.74 "HgN/A
4:50 PM90 °FPassing clouds.10 mph52%29.74 "HgN/A
4:20 PM90 °FPassing clouds.12 mph52%29.74 "HgN/A
3:50 PM90 °FSunny.14 mph49%29.74 "Hg10 mi
3:20 PM90 °FSunny.15 mph52%29.74 "Hg10 mi
2:50 PM91 °FPassing clouds.13 mph46%29.74 "HgN/A
2:20 PM91 °FPassing clouds.12 mph46%29.74 "HgN/A
1:50 PM91 °FPassing clouds.10 mph49%29.77 "HgN/A
1:20 PM90 °FSunny.12 mph52%29.77 "Hg10 mi
12:50 PM91 °FPassing clouds.12 mph49%29.74 "HgN/A
12:20 PM91 °FPassing clouds.10 mph52%29.74 "HgN/A
Weather by CustomWeather, © 2014

See weather overviewHow to use our weather pages